This is the latest recevied weather packets stored in our database for station/object K7FRY. If no packets are shown the sender has not sent any weather packets the latest 10 day(s).
| Time | Temp. | Humidity | Pressure | Rain* | Wind** | Luminosity | Snow |
|---|---|---|---|---|---|---|---|
| 1777913192 | 25° C | 29% | 1014.6 hPa | 0 mm | - | 647 W/m² | - |
| 1777912888 | 25.56° C | 28% | 1014.8 hPa | 0 mm | - | 723 W/m² | - |
| 1777912585 | 25.56° C | 29% | 1014.7 hPa | 0 mm | - | 403 W/m² | - |
| 1777912281 | 26.11° C | 28% | 1014.9 hPa | 0 mm | - | 516 W/m² | - |
| 1777911977 | 25° C | 29% | 1014.9 hPa | 0 mm | - | 826 W/m² | - |
| 1777911673 | 25.56° C | 29% | 1015.1 hPa | 0 mm | - | 703 W/m² | - |
| 1777911370 | 26.67° C | 28% | 1015.1 hPa | 0 mm | - | 610 W/m² | - |
| 1777911068 | 25° C | 30% | 1014.9 hPa | 0 mm | - | 537 W/m² | - |
| 1777910765 | 25° C | 29% | 1015 hPa | 0 mm | - | 501 W/m² | - |
| 1777910461 | 24.44° C | 31% | 1014.7 hPa | 0 mm | - | 566 W/m² | - |
| 1777910157 | 25° C | 30% | 1014.7 hPa | 0 mm | - | 444 W/m² | - |
| 1777909855 | 25° C | 30% | 1015 hPa | 0 mm | - | 559 W/m² | - |
| 1777909552 | 25° C | 32% | 1015 hPa | 0 mm | - | 552 W/m² | - |
| 1777909249 | 24.44° C | 32% | 1014.9 hPa | 0 mm | - | 663 W/m² | - |
| 1777908947 | 23.89° C | 34% | 1014.8 hPa | 0 mm | - | 350 W/m² | - |
| 1777908645 | 24.44° C | 34% | 1014.9 hPa | 0 mm | - | 464 W/m² | - |
| 1777908342 | 23.89° C | 33% | 1014.9 hPa | 0 mm | - | 495 W/m² | - |
| 1777908038 | 23.33° C | 35% | 1015.1 hPa | 0 mm | - | 449 W/m² | - |
| 1777907733 | 23.33° C | 36% | 1015.1 hPa | 0 mm | - | 222 W/m² | - |
| 1777907428 | 23.89° C | 34% | 1014.9 hPa | 0 mm | - | 300 W/m² | - |
| 1777907125 | 23.33° C | 35% | 1015.1 hPa | 0 mm | - | 354 W/m² | - |
| 1777906823 | 23.89° C | 35% | 1014.6 hPa | 0 mm | - | 288 W/m² | - |
| 1777906520 | 24.44° C | 34% | 1015 hPa | 0 mm | - | 156 W/m² | - |
| 1777906215 | 23.33° C | 35% | 1015.1 hPa | 0 mm | - | 327 W/m² | - |
| 1777905912 | 23.33° C | 36% | 1015.1 hPa | 0 mm | - | 290 W/m² | - |
* Rain latest hour (hover to see other rain measurements)
** Current wind speed in m/s (hover to see current wind gust speed)